Weather History for Clinton, IA

Change the Weather History Date:

Wednesday, June 4, 2014

  Actual Average Record
Temperature  
Mean Temperature 63 °F -  
Max Temperature 69 °F 78 °F 92 °F (1971)
Min Temperature 57 °F 55 °F 43 °F (1950)
Degree Days  
Heating Degree Days 2    
Growing Degree Days 13 (Base 50)    
Moisture  
Dew Point 58 °F    
Average Humidity 80    
Maximum Humidity 94    
Minimum Humidity 60    
Precipitation  
Precipitation 0.15 in - - ()
Sea Level Pressure  
Sea Level Pressure 29.87 in    
Wind  
Wind Speed 10 mph (East)    
Max Wind Speed 17 mph    
Max Gust Speed 21 mph    
Visibility 10 miles    
Events      
Averages and records for this station are not official NWS values.
T = Trace of Precipitation, MM = Missing Value Source: NWS Daily Summary

Daily Weather History Graph

Daily Weather History Graph

Search for Another Location

Airport:

Trip Planner

Search our weather history database for the weather conditions in past years. The results will help you decide how hot, cold, wet, or windy it might be!

Date:

Astronomy

Jun. 04, 2014 Rise Set
Actual Time 5:27 AM CDT 8:32 PM CDT
Civil Twilight 4:53 AM CDT 9:05 PM CDT
Nautical Twilight 4:10 AM CDT 9:49 PM CDT
Astronomical Twilight 3:19 AM CDT 10:40 PM CDT
Moon 11:51 AM CDT (6/4) 12:27 AM CDT (6/4)
Length of Visible Light 16h 11m
Length of Day
15h 04m
Waxing Crescent, 39% of the Moon is Illuminated
Jun 4
Waxing Crescent
Jun 5
First Quarter
Jun 12
Full
Jun 19
Last Quarter
Jun 27
New

Hourly Weather History & Observations

Time (CDT) Temp. Dew Point Humidity Pressure Visibility Wind Dir Wind Speed Gust Speed Precip Events Conditions
12:15 AM 66.2 °F 60.8 °F 83% 29.91 in 10.0 mi South 6.9 mph - N/A   Mostly Cloudy
12:35 AM 66.2 °F 60.8 °F 83% 29.91 in 10.0 mi South 8.1 mph - N/A   Overcast
12:55 AM 64.4 °F 59.0 °F 83% 29.90 in 10.0 mi South 8.1 mph - 0.01 in   Scattered Clouds
1:15 AM 64.4 °F 59.0 °F 83% 29.88 in 10.0 mi South 6.9 mph - N/A   Mostly Cloudy
1:35 AM 64.4 °F 60.8 °F 88% 29.87 in 10.0 mi South 11.5 mph - 0.01 in   Overcast
1:55 AM 64.4 °F 60.8 °F 88% 29.87 in 10.0 mi South 10.4 mph - 0.02 in   Overcast
2:15 AM 64.4 °F 60.8 °F 88% 29.88 in 10.0 mi South 6.9 mph - 0.02 in   Overcast
2:35 AM 64.4 °F 60.8 °F 88% 29.88 in 8.0 mi SSE 3.5 mph - 0.05 in   Overcast
2:55 AM 64.4 °F 60.8 °F 88% 29.87 in 10.0 mi SSE 8.1 mph - 0.07 in   Overcast
3:15 AM 64.4 °F 60.8 °F 88% 29.85 in 10.0 mi SE 11.5 mph - 0.01 in   Mostly Cloudy
3:35 AM 62.6 °F 59.0 °F 88% 29.83 in 10.0 mi SE 15.0 mph - 0.01 in   Mostly Cloudy
3:55 AM 62.6 °F 59.0 °F 88% 29.83 in 10.0 mi SSE 11.5 mph - 0.02 in   Overcast
4:15 AM 62.6 °F 60.8 °F 94% 29.82 in 10.0 mi SE 8.1 mph - 0.02 in   Overcast
4:35 AM 62.6 °F 60.8 °F 94% 29.80 in 10.0 mi East 8.1 mph - 0.03 in   Overcast
4:55 AM 62.6 °F 60.8 °F 94% 29.78 in 10.0 mi East 9.2 mph - 0.03 in   Overcast
5:15 AM 62.6 °F 60.8 °F 94% 29.78 in 10.0 mi East 6.9 mph - N/A   Overcast
5:35 AM 62.6 °F 60.8 °F 94% 29.74 in 10.0 mi ESE 12.7 mph - N/A   Overcast
5:55 AM 62.6 °F 60.8 °F 94% 29.72 in 10.0 mi East 13.8 mph - N/A   Overcast
6:15 AM 62.6 °F 60.8 °F 94% 29.77 in 10.0 mi East 9.2 mph - N/A   Overcast
6:35 AM 64.4 °F 60.8 °F 88% 29.80 in 10.0 mi East 8.1 mph - N/A   Overcast
6:55 AM 64.4 °F 60.8 °F 88% 29.80 in 10.0 mi East 9.2 mph - N/A   Overcast
7:15 AM 64.4 °F 60.8 °F 88% 29.80 in 10.0 mi East 9.2 mph - N/A   Overcast
7:35 AM 64.4 °F 60.8 °F 88% 29.81 in 10.0 mi East 9.2 mph - N/A   Overcast
7:55 AM 64.4 °F 59.0 °F 83% 29.82 in 10.0 mi East 9.2 mph - N/A   Overcast
8:15 AM 62.6 °F 59.0 °F 88% 29.83 in 10.0 mi ENE 6.9 mph - N/A   Overcast
8:35 AM 62.6 °F 57.2 °F 82% 29.84 in 10.0 mi ENE 8.1 mph - N/A   Overcast
8:55 AM 62.6 °F 57.2 °F 82% 29.85 in 9.0 mi NE 6.9 mph - N/A   Overcast
9:15 AM 62.6 °F 57.2 °F 82% 29.85 in 10.0 mi NE 6.9 mph - N/A   Overcast
9:35 AM 64.4 °F 59.0 °F 83% 29.85 in 10.0 mi NE 9.2 mph - N/A   Overcast
9:55 AM 64.4 °F 59.0 °F 83% 29.85 in 10.0 mi NE 12.7 mph - N/A   Overcast
10:15 AM 64.4 °F 59.0 °F 83% 29.84 in 10.0 mi NE 13.8 mph - N/A   Overcast
10:35 AM 64.4 °F 57.2 °F 77% 29.85 in 10.0 mi ENE 11.5 mph - N/A   Overcast
10:55 AM 64.4 °F 57.2 °F 77% 29.85 in 10.0 mi East 15.0 mph - N/A   Overcast
11:15 AM 64.4 °F 57.2 °F 77% 29.85 in 10.0 mi ENE 15.0 mph - N/A   Overcast
11:35 AM 64.4 °F 57.2 °F 77% 29.85 in 10.0 mi ENE 12.7 mph - N/A   Overcast
11:55 AM 64.4 °F 57.2 °F 77% 29.85 in 10.0 mi ENE 15.0 mph - N/A   Overcast
12:15 PM 64.4 °F 57.2 °F 77% 29.86 in 7.0 mi NE 17.3 mph - N/A   Overcast
12:35 PM 62.6 °F 57.2 °F 82% 29.87 in 6.0 mi ENE 16.1 mph - N/A   Overcast
12:55 PM 62.6 °F 57.2 °F 82% 29.87 in 10.0 mi ENE 12.7 mph - N/A   Overcast
1:15 PM 64.4 °F 57.2 °F 77% 29.88 in 5.0 mi ENE 13.8 mph - N/A   Overcast
1:35 PM 64.4 °F 57.2 °F 77% 29.88 in 10.0 mi ENE 13.8 mph - N/A   Overcast
1:55 PM 66.2 °F 57.2 °F 73% 29.88 in 10.0 mi ENE 15.0 mph 19.6 mph N/A   Overcast
2:15 PM 66.2 °F 57.2 °F 73% 29.89 in 10.0 mi East 15.0 mph - N/A   Mostly Cloudy
2:35 PM 66.2 °F 57.2 °F 73% 29.88 in 10.0 mi East 11.5 mph - N/A   Mostly Cloudy
2:55 PM 66.2 °F 57.2 °F 73% 29.89 in 10.0 mi East 15.0 mph - N/A   Mostly Cloudy
3:15 PM 66.2 °F 57.2 °F 73% 29.89 in 10.0 mi East 16.1 mph - N/A   Mostly Cloudy
3:35 PM 68.0 °F 57.2 °F 68% 29.89 in 10.0 mi East 11.5 mph - N/A   Scattered Clouds
3:55 PM 68.0 °F 57.2 °F 68% 29.89 in 10.0 mi ENE 11.5 mph - N/A   Mostly Cloudy
4:15 PM 69.8 °F 57.2 °F 64% 29.90 in 10.0 mi East 12.7 mph 19.6 mph N/A   Mostly Cloudy
4:35 PM 68.0 °F 57.2 °F 68% 29.90 in 10.0 mi East 12.7 mph - N/A   Overcast
4:55 PM 69.8 °F 57.2 °F 64% 29.90 in 10.0 mi East 10.4 mph 17.3 mph N/A   Mostly Cloudy
5:15 PM 69.8 °F 57.2 °F 64% 29.90 in 10.0 mi East 11.5 mph - N/A   Scattered Clouds
5:35 PM 69.8 °F 57.2 °F 64% 29.90 in 10.0 mi East 10.4 mph - N/A   Mostly Cloudy
5:55 PM 68.0 °F 57.2 °F 68% 29.90 in 10.0 mi East 10.4 mph - N/A   Mostly Cloudy
6:15 PM 68.0 °F 55.4 °F 64% 29.90 in 10.0 mi ENE 13.8 mph 20.7 mph N/A   Mostly Cloudy
6:35 PM 69.8 °F 55.4 °F 60% 29.90 in 10.0 mi ENE 11.5 mph - N/A   Mostly Cloudy
6:55 PM 68.0 °F 55.4 °F 64% 29.90 in 10.0 mi ENE 13.8 mph - N/A   Mostly Cloudy
7:15 PM 68.0 °F 55.4 °F 64% 29.91 in 10.0 mi ENE 15.0 mph - N/A   Mostly Cloudy
7:35 PM 66.2 °F 55.4 °F 68% 29.91 in 10.0 mi East 12.7 mph - N/A   Partly Cloudy
7:55 PM 66.2 °F 55.4 °F 68% 29.92 in 10.0 mi East 11.5 mph - N/A   Clear
8:15 PM 64.4 °F 55.4 °F 73% 29.92 in 6.0 mi East 8.1 mph - N/A   Clear
8:35 PM 62.6 °F 55.4 °F 77% 29.91 in 10.0 mi East 8.1 mph - N/A   Clear
8:55 PM 62.6 °F 53.6 °F 72% 29.92 in 10.0 mi East 6.9 mph - N/A   Clear
9:15 PM 60.8 °F 53.6 °F 77% 29.93 in 10.0 mi ENE 6.9 mph - N/A   Clear
9:35 PM 60.8 °F 53.6 °F 77% 29.94 in 10.0 mi East 6.9 mph - N/A   Clear
10:15 PM 59.0 °F 53.6 °F 82% 29.94 in 10.0 mi East 5.8 mph - N/A   Clear
10:35 PM 57.2 °F 53.6 °F 88% 29.94 in 10.0 mi East 5.8 mph - N/A   Clear
10:55 PM - - N/A% 29.94 in 10.0 mi East 5.8 mph - N/A   Clear
11:15 PM 57.2 °F 53.6 °F 88% 29.94 in 10.0 mi East 5.8 mph - N/A   Clear
11:35 PM - - N/A% 29.95 in 10.0 mi East 5.8 mph - N/A   Clear
11:55 PM 57.2 °F 51.8 °F 82% 29.96 in 10.0 mi East 6.9 mph - N/A   Clear